Total_Precipitation_Accumulation
1.15 1.16 1.12 1.17 1.12 0.96 0.88 0.86 0.87 0.72 0.62 0.44 0.23 0.11 0.09 0.08 0.07 0.06 0.04 0.03 0.02 0.02 0.01 0.01 0.01 0.02 0.02 0.02 0.03 0.05 0.11 0.21 0.54 0.85 0.72 0.59 0.55 0.62
0.89 0.89 0.94 1.01 1.08 1.05 1.01 0.95 0.90 0.82 0.72 0.58 0.36 0.17 0.13 0.14 0.13 0.09 0.07 0.06 0.03 0.02 0.01 0.01 0.01 0.01 0.01 0.01 0.01 0.01 0.01 0.05 0.26 0.74 0.85 0.73 0.72 0.82
0.74 0.72 0.81 0.88 1.06 1.12 1.10 1.00 0.95 0.88 0.76 0.72 0.52 0.28 0.20 0.19 0.19 0.12 0.08 0.06 0.04 0.03 0.02 0.02 0.02 0.02 0.01 0.01 0.01 0.00 0.00 0.01 0.04 0.18 0.35 0.45 0.61 0.83
0.65 0.61 0.65 0.73 0.88 1.03 1.14 1.05 0.98 0.91 0.86 0.83 0.66 0.46 0.34 0.28 0.22 0.16 0.11 0.08 0.07 0.07 0.06 0.04 0.03 0.03 0.02 0.01 0.00 0.00 0.00 0.01 0.01 0.04 0.11 0.22 0.30 0.44
0.51 0.50 0.55 0.59 0.67 0.80 0.93 1.02 0.98 0.91 0.94 0.95 0.81 0.62 0.46 0.35 0.29 0.24 0.17 0.14 0.12 0.09 0.09 0.08 0.06 0.05 0.04 0.03 0.02 0.01 0.01 0.01 0.01 0.01 0.03 0.07 0.13 0.17
0.33 0.33 0.37 0.40 0.46 0.58 0.71 0.84 0.95 0.98 1.00 1.01 0.94 0.73 0.54 0.40 0.30 0.28 0.29 0.25 0.22 0.16 0.12 0.12 0.11 0.10 0.07 0.06 0.04 0.03 0.02 0.01 0.01 0.01 0.01 0.01 0.03 0.05
0.35 0.30 0.25 0.26 0.31 0.38 0.49 0.68 0.81 0.93 1.00 1.05 1.01 0.87 0.70 0.57 0.43 0.36 0.34 0.38 0.38 0.31 0.24 0.21 0.19 0.16 0.13 0.10 0.07 0.05 0.04 0.04 0.03 0.03 0.02 0.02 0.02 0.02
0.35 0.36 0.35 0.31 0.23 0.19 0.21 0.32 0.47 0.65 0.81 0.91 0.96 0.87 0.74 0.64 0.58 0.50 0.41 0.36 0.37 0.38 0.36 0.36 0.33 0.29 0.29 0.25 0.22 0.19 0.14 0.10 0.07 0.05 0.04 0.03 0.02 0.02
0.33 0.33 0.35 0.34 0.37 0.33 0.27 0.23 0.23 0.31 0.47 0.63 0.71 0.73 0.78 0.67 0.54 0.44 0.38 0.35 0.34 0.35 0.34 0.34 0.35 0.34 0.34 0.34 0.34 0.33 0.29 0.23 0.18 0.14 0.10 0.08 0.06 0.05
0.42 0.38 0.40 0.38 0.38 0.50 0.52 0.44 0.36 0.37 0.47 0.38 0.41 0.61 0.66 0.61 0.52 0.45 0.43 0.38 0.32 0.28 0.26 0.30 0.31 0.30 0.26 0.25 0.26 0.26 0.26 0.23 0.21 0.18 0.15 0.12 0.10 0.08
0.46 0.44 0.46 0.47 0.59 0.59 0.51 0.48 0.47 0.46 0.64 0.66 0.61 0.56 0.50 0.43 0.41 0.44 0.42 0.37 0.33 0.29 0.25 0.23 0.26 0.31 0.31 0.28 0.26 0.24 0.21 0.21 0.20 0.19 0.19 0.19 0.17 0.13
0.56 0.50 0.66 0.61 0.61 0.47 0.34 0.44 0.51 0.50 0.50 0.51 0.51 0.47 0.39 0.33 0.32 0.33 0.40 0.40 0.35 0.33 0.30 0.26 0.25 0.27 0.27 0.27 0.26 0.25 0.23 0.21 0.20 0.19 0.19 0.18 0.16 0.12
0.63 0.63 0.61 0.65 0.47 0.37 0.33 0.39 0.52 0.55 0.54 0.57 0.56 0.49 0.39 0.33 0.31 0.30 0.34 0.35 0.35 0.37 0.32 0.24 0.22 0.21 0.20 0.20 0.20 0.19 0.17 0.15 0.13 0.12 0.11 0.11 0.12 0.10
0.60 0.52 0.48 0.50 0.35 0.29 0.26 0.33 0.40 0.40 0.42 0.48 0.52 0.49 0.41 0.35 0.32 0.28 0.27 0.27 0.26 0.29 0.29 0.23 0.20 0.17 0.16 0.15 0.15 0.15 0.14 0.14 0.12 0.09 0.08 0.08 0.08 0.08
0.44 0.41 0.36 0.31 0.26 0.22 0.22 0.27 0.29 0.35 0.42 0.47 0.45 0.43 0.42 0.40 0.36 0.31 0.25 0.20 0.19 0.19 0.19 0.20 0.22 0.23 0.21 0.18 0.15 0.15 0.15 0.13 0.12 0.10 0.09 0.08 0.07 0.07
0.28 0.20 0.19 0.20 0.23 0.24 0.25 0.25 0.26 0.38 0.49 0.51 0.50 0.46 0.46 0.44 0.41 0.37 0.34 0.30 0.29 0.29 0.27 0.25 0.27 0.31 0.33 0.31 0.26 0.22 0.21 0.20 0.17 0.17 0.15 0.14 0.12 0.11
0.42 0.30 0.23 0.21 0.22 0.24 0.26 0.30 0.39 0.46 0.53 0.49 0.48 0.44 0.42 0.44 0.43 0.40 0.38 0.37 0.35 0.36 0.41 0.42 0.40 0.39 0.38 0.39 0.39 0.37 0.35 0.32 0.31 0.29 0.24 0.19 0.17 0.17
0.43 0.42 0.41 0.41 0.39 0.35 0.33 0.30 0.33 0.39 0.43 0.48 0.48 0.44 0.38 0.38 0.37 0.35 0.35 0.34 0.33 0.35 0.36 0.39 0.43 0.46 0.46 0.43 0.38 0.36 0.41 0.42 0.42 0.39 0.32 0.24 0.20 0.22
0.37 0.39 0.40 0.41 0.39 0.34 0.29 0.26 0.24 0.26 0.31 0.39 0.46 0.48 0.47 0.44 0.40 0.35 0.29 0.27 0.28 0.28 0.27 0.26 0.28 0.31 0.36 0.38 0.39 0.32 0.31 0.36 0.37 0.34 0.32 0.28 0.24 0.26
0.24 0.27 0.28 0.28 0.26 0.24 0.20 0.18 0.18 0.18 0.19 0.22 0.28 0.37 0.47 0.55 0.54 0.48 0.44 0.39 0.34 0.30 0.28 0.24 0.20 0.19 0.21 0.24 0.25 0.25 0.25 0.27 0.29 0.27 0.24 0.23 0.21 0.22
0.09 0.11 0.11 0.12 0.14 0.14 0.11 0.10 0.12 0.14 0.15 0.16 0.18 0.20 0.26 0.36 0.45 0.50 0.53 0.56 0.53 0.48 0.44 0.37 0.31 0.31 0.25 0.24 0.22 0.18 0.18 0.19 0.17 0.15 0.15 0.15 0.16 0.16
0.04 0.04 0.05 0.05 0.07 0.07 0.06 0.05 0.05 0.07 0.09 0.10 0.11 0.13 0.16 0.19 0.25 0.33 0.38 0.41 0.43 0.45 0.48 0.49 0.47 0.45 0.39 0.34 0.29 0.22 0.19 0.18 0.20 0.21 0.17 0.15 0.14 0.14
0.03 0.03 0.03 0.04 0.05 0.06 0.10 0.12 0.09 0.06 0.07 0.08 0.09 0.10 0.11 0.12 0.15 0.20 0.24 0.27 0.31 0.34 0.37 0.39 0.38 0.35 0.34 0.34 0.33 0.33 0.28 0.24 0.22 0.22 0.23 0.28 0.26 0.19